Flag for U.S.A. Weather past 2 weeks in Miami, Florida, U.S.A.

Now
53 °F

Clear.


Feels Like: 53 °F
Forecast: 57 / 72 °F
Wind: 3 mph from Southwest

Location: Miami International Airport

Current Time: Jan 26, 2015 at 2:19:00 AM

Latest Report: Jan 26, 2015 at 1:53 AM


Visibility: 10 mi

Pressure: 29.98 "Hg

Humidity: 89%

Dew point: 50 °F

Location of MiamiLocation

Historic Weather in Miami — Graph

°F

Miami temperature yesterday

Maximum temperature yesterday: 66 °F (at 1:53 PM)
Minimum temperature yesterday: 53 °F (at 5:53 AM)
Average temperature yesterday: 59 °F

Past Weeks' High & Low Weather Summary

 TemperatureHumidityPressure
High81 °F (Jan 21, 1:53 PM)100% (Jan 14, 7:56 AM)30.29 "Hg (Jan 14, 7:56 AM)
Low53 °F (Jan 25, 5:53 AM)34% (Jan 25, 3:53 PM)29.92 "Hg (Jan 24, 3:53 PM)
Average71 °F72%30.08 "Hg
* Reported Jan 11 12:53 AM — Jan 26 12:53 AM, Miami, Weather by CustomWeather, © 2014

Note: Actual official high and low records may vary slightly from our data, if they occured in-between our weather recording intervals... More about our weather records

Advertising

Miami weather history for previous 24 hours

 ConditionsComfort  
Time TempWeatherWind HumidityBarometerVisibility
12:53 AM
Jan 26
55 °FClear.No wind83%30.00 "Hg10 mi
11:53 PM
Jan 25
57 °FClear.3 mph78%30.03 "Hg10 mi
10:53 PM59 °FClear.5 mph72%30.05 "Hg10 mi
9:53 PM60 °FClear.5 mph60%30.03 "Hg10 mi
8:53 PM61 °FPassing clouds.3 mph52%30.05 "Hg10 mi
7:53 PM61 °FPassing clouds.No wind52%30.03 "Hg10 mi
6:53 PM63 °FPassing clouds.3 mph47%30.03 "Hg10 mi
5:53 PM64 °FBroken clouds.5 mph43%30.00 "Hg10 mi
4:53 PM66 °FPartly sunny.5 mph40%29.99 "Hg10 mi
3:53 PM66 °FPartly sunny.5 mph34%30.01 "Hg10 mi
2:53 PM66 °FPartly sunny.5 mph40%30.01 "Hg10 mi
1:53 PM66 °FScattered clouds.8 mph39%30.02 "Hg10 mi
12:53 PM64 °FPassing clouds.7 mph43%30.06 "Hg10 mi
11:53 AM63 °FPassing clouds.8 mph45%30.10 "Hg10 mi
10:53 AM60 °FPassing clouds.10 mph47%30.10 "Hg10 mi
9:53 AM57 °FPassing clouds.10 mph51%30.12 "Hg10 mi
8:53 AM56 °FPassing clouds.7 mph55%30.11 "Hg10 mi
7:53 AM53 °FPassing clouds.7 mph77%30.10 "Hg10 mi
6:53 AM53 °FPassing clouds.5 mph83%30.07 "Hg10 mi
5:53 AM53 °FClear.7 mph83%30.06 "Hg10 mi
4:53 AM54 °FClear.6 mph77%30.03 "Hg10 mi
3:53 AM54 °FClear.9 mph80%30.03 "Hg10 mi
2:53 AM56 °FClear.8 mph77%30.03 "Hg10 mi
Weather by CustomWeather, © 2014

See weather overviewHow to use our weather pages